Weather History for KMIC - June, 2014

Change the Weather History Date:

Wednesday, June 18, 2014

  Actual Average Record
Temperature  
Mean Temperature 76 °F -  
Max Temperature 81 °F 75 °F 89 °F (2012)
Min Temperature 70 °F 55 °F 50 °F (2004)
Cooling Degree Days 10    
Growing Degree Days 26 (Base 50)    
Moisture  
Dew Point 66 °F    
Average Humidity 74    
Maximum Humidity 90    
Minimum Humidity 54    
Precipitation  
Precipitation 0.24 in - - ()
Sea Level Pressure  
Sea Level Pressure 29.85 in    
Wind  
Wind Speed 6 mph (ENE)    
Max Wind Speed 16 mph    
Max Gust Speed 23 mph    
Visibility 10 miles    
Events Rain , Thunderstorm    
Averages and records for this station are not official NWS values.
T = Trace of Precipitation, MM = Missing Value Source: NWS Daily Summary

Daily Weather History Graph

Daily Weather History Graph

Search for Another Location

Airport or City:

Trip Planner

Search our weather history database for the weather conditions in past years. The results will help you decide how hot, cold, wet, or windy it might be!

Date:

Astronomy

Jun. 18, 2014 Rise Set
Actual Time 5:25 AM CDT 9:03 PM CDT
Civil Twilight 4:48 AM CDT 9:40 PM CDT
Nautical Twilight 3:58 AM CDT 10:30 PM CDT
Astronomical Twilight 2:52 AM CDT 11:37 PM CDT
Moon 12:17 AM CDT (6/18) 12:05 PM CDT (6/18)
Length of Visible Light 16h 52m
Length of Day
15h 37m
Waning Gibbous, 62% of the Moon is Illuminated
Jun 18
Waning Gibbous
Jun 19
Last Quarter
Jun 27
New
Jul 5
First Quarter
Jul 12
Full

Hourly Weather History & Observations

Time (CDT) Temp. Heat Index Dew Point Humidity Pressure Visibility Wind Dir Wind Speed Gust Speed Precip Events Conditions
12:06 AM 72.0 °F - 66.9 °F 84% 29.82 in 5.0 mi Calm Calm - 0.06 in Rain Light Rain
12:53 AM 72.0 °F - 66.9 °F 84% 29.78 in 10.0 mi NE 5.8 mph - 0.13 in   Mostly Cloudy
1:53 AM 73.0 °F - 66.9 °F 81% 29.77 in 10.0 mi NE 4.6 mph - 0.00 in Rain Light Rain
2:39 AM 73.0 °F - 66.9 °F 81% 29.80 in 10.0 mi Variable 3.5 mph - 0.00 in Thunderstorm Overcast
2:53 AM 73.0 °F - 66.9 °F 81% 29.81 in 10.0 mi South 9.2 mph - 0.00 in Thunderstorm Overcast
3:16 AM 72.0 °F - 66.9 °F 84% 29.83 in 5.0 mi SSE 4.6 mph - 0.08 in Rain Light Rain
3:53 AM 71.1 °F - 66.9 °F 87% 29.79 in 10.0 mi ENE 6.9 mph - 0.11 in Rain Light Rain
4:53 AM 71.1 °F - 66.0 °F 84% 29.80 in 10.0 mi East 5.8 mph - 0.00 in   Mostly Cloudy
5:53 AM 70.0 °F - 66.9 °F 90% 29.77 in 10.0 mi NNE 6.9 mph - N/A   Clear
6:53 AM 70.0 °F - 66.0 °F 87% 29.79 in 10.0 mi ENE 4.6 mph - N/A   Partly Cloudy
7:53 AM 70.0 °F - 66.0 °F 87% 29.84 in 10.0 mi ENE 5.8 mph - N/A   Clear
8:17 AM 71.1 °F - 66.0 °F 84% 29.86 in 10.0 mi NNE 4.6 mph - N/A   Mostly Cloudy
8:30 AM 71.1 °F - 66.0 °F 84% 29.86 in 10.0 mi NNE 4.6 mph - N/A   Overcast
8:37 AM 71.1 °F - 66.0 °F 84% 29.86 in 10.0 mi NNE 5.8 mph - N/A   Overcast
8:51 AM 71.6 °F - 66.2 °F 83% 29.86 in 10.0 mi NE 4.6 mph - N/A   Overcast
8:53 AM 71.1 °F - 66.9 °F 87% 29.85 in 10.0 mi NE 4.6 mph - N/A   Overcast
9:53 AM 73.0 °F - 66.9 °F 81% 29.84 in 10.0 mi ENE 10.4 mph - N/A   Overcast
10:32 AM 73.9 °F - 66.0 °F 76% 29.85 in 10.0 mi ENE 12.7 mph - N/A   Overcast
10:53 AM 73.9 °F - 64.9 °F 73% 29.83 in 10.0 mi East 13.8 mph 19.6 mph N/A   Overcast
11:53 AM 75.9 °F - 66.0 °F 71% 29.85 in 10.0 mi East 8.1 mph - N/A   Mostly Cloudy
12:53 PM 78.1 °F - 66.0 °F 66% 29.87 in 10.0 mi East 11.5 mph - N/A   Mostly Cloudy
1:06 PM 80.1 °F 82.3 °F 66.9 °F 64% 29.89 in 10.0 mi NE 10.4 mph - N/A   Mostly Cloudy
1:53 PM 78.1 °F - 66.0 °F 66% 29.88 in 10.0 mi East 12.7 mph - N/A   Overcast
2:53 PM 79.0 °F - 66.0 °F 64% 29.87 in 10.0 mi East 10.4 mph 19.6 mph N/A   Mostly Cloudy
3:53 PM 79.0 °F - 64.0 °F 60% 29.87 in 10.0 mi ESE 13.8 mph 23.0 mph N/A   Mostly Cloudy
4:53 PM 80.1 °F 81.7 °F 64.0 °F 58% 29.88 in 10.0 mi East 11.5 mph 19.6 mph N/A   Scattered Clouds
5:53 PM 81.0 °F 82.2 °F 63.0 °F 54% 29.86 in 10.0 mi East 11.5 mph 19.6 mph N/A   Clear
6:53 PM 80.1 °F 81.7 °F 64.0 °F 58% 29.88 in 10.0 mi ESE 13.8 mph 21.9 mph N/A   Partly Cloudy
7:53 PM 79.0 °F - 62.1 °F 56% 29.89 in 10.0 mi East 10.4 mph 19.6 mph N/A   Partly Cloudy
8:53 PM 78.1 °F - 62.1 °F 58% 29.90 in 10.0 mi ESE 8.1 mph - N/A   Mostly Cloudy
9:53 PM 77.0 °F - 64.0 °F 64% 29.90 in 10.0 mi ENE 8.1 mph - N/A   Overcast
10:53 PM 75.9 °F - 63.0 °F 64% 29.90 in 10.0 mi East 16.1 mph 21.9 mph N/A   Overcast
11:53 PM 75.0 °F - 64.0 °F 69% 29.90 in 10.0 mi ESE 10.4 mph - N/A   Overcast